Location: Équennes
(49.7375°N, 1.9622°E)
Time: 18:47:17
(UTC+00:00)

Cosmos 2278 - Pass Details

Date: 26 September 2023
Orbit: 838 x 853 km, 71.1° (Epoch: 08 December)

Event Time Altitude Azimuth Distance (km) Brightness Sun altitude
Rises 20:09:57 0° 279° (W) 3,406 8.0 -23.8°
Reaches altitude 10° 20:13:58 10° 307° (NW) 2,478 7.2 -24.4°
Maximum altitude 20:16:29 13° 334° (NNW) 2,280 6.6 -24.7°
Drops below altitude 10° 20:19:00 10° 0° (N) 2,485 6.5 -25.1°
Sets 20:23:04 0° 28° (NNE) 3,427 6.9 -25.7°
